When you browse on this site, cookies collect data to enhance your experience and personalize the content and advertising you see.
Visit our Privacy Policy to learn more. By continuing to use the site, you agree to this use of cookies and data.
  • In Hungary
  • List of Countries
  • For 7 days
  • Water Temperature
  • Weather Map
  • News
  • Weather Widgets
  • user-avatar
    Login

    Hourly Weather Ballalpur

    Today, 18 February, Tuesday

    Time Temperature Precipitation Wind Pressure Humidity
    00:00 +23°C° 0 mm 1 mps 746 mmHg 18%
    01:00 +22°C° 0 mm 1 mps 746 mmHg 19%
    02:00 +21°C° 0 mm 1 mps 745 mmHg 19%
    03:00 +21°C° 0 mm 1 mps 745 mmHg 20%
    04:00 +20°C° 0 mm 1 mps 745 mmHg 20%
    05:00 +20°C° 0 mm 1 mps 745 mmHg 24%
    06:00 +21°C° 0 mm 1 mps 746 mmHg 23%
    07:00 +22°C° 0 mm 1 mps 746 mmHg 23%
    08:00 +24°C° 0 mm 1 mps 747 mmHg 23%
    09:00 +27°C° 0 mm 2 mps 747 mmHg 20%
    10:00 +29°C° 0 mm 2 mps 747 mmHg 18%
    11:00 +32°C° 0 mm 2 mps 747 mmHg 15%
    12:00 +34°C° 0 mm 2 mps 746 mmHg 13%
    13:00 +35°C° 0 mm 2 mps 745 mmHg 12%
    14:00 +35°C° 0 mm 1 mps 744 mmHg 10%
    15:00 +35°C° 0 mm 1 mps 744 mmHg 11%
    16:00 +34°C° 0 mm 1 mps 744 mmHg 11%
    17:00 +33°C° 0 mm 1 mps 744 mmHg 12%
    18:00 +31°C° 0 mm 1 mps 744 mmHg 13%
    19:00 +29°C° 0 mm 1 mps 745 mmHg 13%
    20:00 +26°C° 0 mm 1 mps 745 mmHg 14%
    21:00 +24°C° 0 mm 0 mps 745 mmHg 14%
    22:00 +23°C° 0 mm 0 mps 745 mmHg 14%
    23:00 +22°C° 0 mm 0 mps 745 mmHg 15%

    Tomorrow, 19 February, Wednesday

    Time Temperature Precipitation Wind Pressure Humidity
    00:00 +22°C° 0 mm 0 mps 744 mmHg 15%
    01:00 +23°C° 0 mm 1 mps 744 mmHg 16%
    02:00 +22°C° 0 mm 1 mps 744 mmHg 17%
    03:00 +22°C° 0 mm 1 mps 744 mmHg 18%
    04:00 +21°C° 0 mm 1 mps 744 mmHg 19%
    05:00 +20°C° 0 mm 1 mps 744 mmHg 20%
    06:00 +22°C° 0 mm 1 mps 745 mmHg 21%
    07:00 +23°C° 0 mm 2 mps 745 mmHg 21%
    08:00 +25°C° 0 mm 2 mps 746 mmHg 22%
    09:00 +28°C° 0 mm 2 mps 746 mmHg 21%
    10:00 +30°C° 0 mm 3 mps 746 mmHg 20%
    11:00 +34°C° 0 mm 3 mps 746 mmHg 20%
    12:00 +35°C° 0 mm 2 mps 745 mmHg 18%
    13:00 +37°C° 0 mm 2 mps 744 mmHg 16%
    14:00 +38°C° 0 mm 2 mps 743 mmHg 13%
    15:00 +36°C° 0 mm 1 mps 743 mmHg 15%
    16:00 +35°C° 0 mm 1 mps 742 mmHg 16%
    17:00 +34°C° 0 mm 1 mps 742 mmHg 17%
    18:00 +32°C° 0 mm 1 mps 743 mmHg 20%
    19:00 +30°C° 0 mm 1 mps 743 mmHg 22%
    20:00 +28°C° 0 mm 1 mps 744 mmHg 25%
    21:00 +28°C° 0 mm 1 mps 744 mmHg 27%
    22:00 +27°C° 0 mm 1 mps 744 mmHg 29%
    23:00 +27°C° 0 mm 1 mps 744 mmHg 30%

    Day after tomorrow, 20 February, Thursday

    Time Temperature Precipitation Wind Pressure Humidity
    00:00 +26°C° 0 mm 2 mps 744 mmHg 33%
    01:00 +26°C° 0 mm 3 mps 743 mmHg 35%
    02:00 +25°C° 0 mm 4 mps 743 mmHg 38%
    03:00 +23°C° 0 mm 4 mps 743 mmHg 52%
    04:00 +23°C° 0 mm 4 mps 743 mmHg 66%
    05:00 +22°C° 0 mm 3 mps 743 mmHg 80%
    06:00 +23°C° 0 mm 4 mps 744 mmHg 75%
    07:00 +25°C° 0 mm 4 mps 745 mmHg 71%
    08:00 +26°C° 0 mm 4 mps 746 mmHg 67%
    09:00 +28°C° 0 mm 4 mps 746 mmHg 58%
    10:00 +30°C° 0 mm 4 mps 746 mmHg 49%
    11:00 +34°C° 0 mm 4 mps 745 mmHg 40%
    12:00 +35°C° 0 mm 4 mps 745 mmHg 36%
    13:00 +36°C° 0 mm 3 mps 744 mmHg 31%
    14:00 +37°C° 0 mm 3 mps 743 mmHg 26%
    15:00 +37°C° 0 mm 3 mps 743 mmHg 27%
    16:00 +36°C° 0 mm 3 mps 743 mmHg 27%
    17:00 +36°C° 0 mm 3 mps 742 mmHg 28%
    18:00 +34°C° 0 mm 3 mps 743 mmHg 31%
    19:00 +32°C° 0 mm 2 mps 744 mmHg 34%
    20:00 +30°C° 0 mm 2 mps 744 mmHg 38%
    21:00 +29°C° 0 mm 2 mps 744 mmHg 39%
    22:00 +29°C° 0 mm 3 mps 744 mmHg 39%
    23:00 +29°C° 0 mm 3 mps 744 mmHg 40%

    21 February, Friday

    Time Temperature Precipitation Wind Pressure Humidity
    00:00 +28°C° 0 mm 3 mps 744 mmHg 43%
    01:00 +27°C° 0 mm 4 mps 743 mmHg 46%
    02:00 +27°C° 0 mm 5 mps 743 mmHg 48%
    03:00 +26°C° 0 mm 5 mps 743 mmHg 54%
    04:00 +25°C° 0 mm 5 mps 744 mmHg 60%
    05:00 +23°C° 0 mm 5 mps 744 mmHg 66%
    06:00 +25°C° 0 mm 4 mps 745 mmHg 61%
    07:00 +26°C° 0 mm 3 mps 746 mmHg 57%
    08:00 +26°C° 0 mm 3 mps 747 mmHg 52%
    09:00 +29°C° 0 mm 3 mps 747 mmHg 45%
    10:00 +31°C° 0 mm 3 mps 747 mmHg 37%
    11:00 +34°C° 0 mm 3 mps 747 mmHg 30%
    18:00 +34°C° 0 mm 2 mps 745 mmHg 28%
    19:00 +31°C° 0 mm 2 mps 745 mmHg 31%
    20:00 +30°C° 0 mm 2 mps 746 mmHg 33%
    21:00 +29°C° 0 mm 2 mps 746 mmHg 35%
    22:00 +29°C° 0 mm 2 mps 746 mmHg 36%
    23:00 +28°C° 0 mm 2 mps 746 mmHg 37%

    22 February, Saturday

    Time Temperature Precipitation Wind Pressure Humidity
    00:00 +28°C° 0 mm 3 mps 745 mmHg 38%
    01:00 +27°C° 0 mm 3 mps 745 mmHg 39%
    02:00 +27°C° 0 mm 3 mps 745 mmHg 41%
    03:00 +26°C° 0 mm 4 mps 745 mmHg 45%
    04:00 +25°C° 0 mm 4 mps 745 mmHg 50%
    05:00 +23°C° 0 mm 5 mps 745 mmHg 54%
    06:00 +25°C° 0 mm 4 mps 746 mmHg 51%
    07:00 +26°C° 0 mm 3 mps 746 mmHg 48%
    08:00 +27°C° 0 mm 3 mps 747 mmHg 45%
    09:00 +29°C° 0 mm 3 mps 747 mmHg 38%
    10:00 +33°C° 0 mm 3 mps 747 mmHg 31%
    11:00 +35°C° 0 mm 3 mps 747 mmHg 23%
    12:00 +36°C° 0 mm 3 mps 746 mmHg 22%
    13:00 +37°C° 0 mm 3 mps 745 mmHg 20%
    14:00 +38°C° 0 mm 3 mps 744 mmHg 18%
    15:00 +38°C° 0 mm 3 mps 744 mmHg 19%
    16:00 +37°C° 0 mm 2 mps 744 mmHg 19%
    17:00 +37°C° 0 mm 2 mps 744 mmHg 20%
    18:00 +35°C° 0 mm 2 mps 744 mmHg 22%
    19:00 +32°C° 0 mm 2 mps 745 mmHg 24%
    20:00 +30°C° 0 mm 2 mps 745 mmHg 26%
    21:00 +30°C° 0 mm 2 mps 745 mmHg 27%
    22:00 +29°C° 0 mm 3 mps 745 mmHg 28%
    23:00 +29°C° 0 mm 3 mps 745 mmHg 28%

    23 February, Sunday

    Time Temperature Precipitation Wind Pressure Humidity
    00:00 +28°C° 0 mm 3 mps 744 mmHg 30%
    01:00 +27°C° 0 mm 4 mps 744 mmHg 31%
    02:00 +27°C° 0 mm 4 mps 744 mmHg 33%
    03:00 +26°C° 0 mm 4 mps 744 mmHg 45%
    04:00 +25°C° 0 mm 4 mps 744 mmHg 57%
    05:00 +22°C° 0 mm 4 mps 744 mmHg 69%
    06:00 +23°C° 0 mm 4 mps 745 mmHg 68%
    07:00 +25°C° 0 mm 4 mps 745 mmHg 67%
    08:00 +26°C° 0 mm 3 mps 746 mmHg 66%
    09:00 +29°C° 0 mm 4 mps 746 mmHg 55%
    10:00 +33°C° 0 mm 4 mps 746 mmHg 44%
    11:00 +35°C° 0 mm 4 mps 746 mmHg 33%
    12:00 +36°C° 0 mm 4 mps 745 mmHg 29%
    13:00 +37°C° 0 mm 3 mps 744 mmHg 26%
    14:00 +38°C° 0 mm 3 mps 743 mmHg 22%
    15:00 +38°C° 0 mm 3 mps 743 mmHg 23%
    16:00 +38°C° 0 mm 3 mps 743 mmHg 23%
    17:00 +37°C° 0 mm 3 mps 742 mmHg 23%
    18:00 +35°C° 0 mm 3 mps 743 mmHg 26%
    19:00 +33°C° 0 mm 3 mps 743 mmHg 30%
    20:00 +30°C° 0 mm 3 mps 743 mmHg 33%
    21:00 +30°C° 0 mm 3 mps 743 mmHg 33%
    22:00 +30°C° 0 mm 4 mps 743 mmHg 33%
    23:00 +29°C° 0 mm 4 mps 743 mmHg 34%
    Show more